Hourly Data Report for October 29, 2015

All times are specified in Local Standard Time (LST). Add 1 hour to adjust for Daylight Saving Time where and when it is observed.

HALL BEACH A
NUNAVUT

68°46'33.000" N
81°14'33.000" W
9.10 m
2402354
71293
YUX

Download Data

Hourly Data (October 2015)
Hourly Data Report for October 29, 2015
Temp Definition
°C
Dew Point Temp Definition
°C
Rel Hum Definition
%
Wind Dir Definition
10's deg

Wind Spd Definition
km/h
Visibility Definition
km
Stn Press Definition
kPa
Hmdx Definition


Wind Chill Definition


Weather Definition


TIME
00:00 Legend Double Dagger -8.6 -12.6 73 8 24 16.1 100.96   -17 LegendNANA
01:00 Legend Double Dagger -8.4 -11.9 76 8 22 16.1 100.97   -16 Snow
02:00 Legend Double Dagger -8.4 -11.3 80 8 28 16.1 100.94   -17 LegendNANA
03:00 Legend Double Dagger -8.5 -11.9 77 7 24 16.1 100.95   -17 LegendNANA
04:00 Legend Double Dagger -8.5 -11.8 77 7 26 16.1 100.92   -17 Snow
05:00 Legend Double Dagger -8.5 -11.6 79 8 26 16.1 100.91   -17 LegendNANA
06:00 Legend Double Dagger -8.4 -11.7 77 7 28 16.1 100.91   -17 LegendNANA
07:00 Legend Double Dagger -8.2 -11.3 78 7 24 16.1 100.92   -16 LegendNANA
08:00 Legend Double Dagger -8.1 -10.7 82 8 26 16.1 100.91   -16 Snow
09:00 Legend Double Dagger -7.8 -10.1 84 7 22 12.9 100.89   -15 Snow
10:00 Legend Double Dagger -7.5 -9.3 87 6 22 16.1 100.86   -15 Snow
11:00 Legend Double Dagger -6.9 -11.1 73 6 18 16.1 100.84   -14 Snow
12:00 Legend Double Dagger -7.0 -9.3 84 5 17 16.1 100.82   -13 Snow
13:00 Legend Double Dagger -6.9 -8.6 88 5 17 2.0 100.81   -13 Snow
14:00 Legend Double Dagger -6.9 -8.7 87 4 21 4.0 100.78   -14 Snow
15:00 Legend Double Dagger -7.0 -8.7 88 36 17 4.8 100.77   -13 Snow
16:00 Legend Double Dagger -7.1 -9.1 86 LegendMM 4 4.8 100.75   -9 Snow
17:00 Legend Double Dagger -7.3 -9.1 87 35 8 16.1 100.73   -11 Snow
18:00 Legend Double Dagger -6.9 -8.3 90 1 11 1.6 100.71   -12 Snow
19:00 Legend Double Dagger -9.4 -11.3 86 33 28 16.1 100.71   -18 Snow
20:00 Legend Double Dagger -9.6 -12.0 83 33 26 16.1 100.71   -18 LegendNANA
21:00 Legend Double Dagger -9.9 -12.3 83 33 26 16.1 100.68   -19 Snow
22:00 Legend Double Dagger -10.4 -12.6 84 34 28 16.1 100.67   -20 Snow
23:00 Legend Double Dagger -11.3 -13.2 86 34 30 16.1 100.65   -21 Snow

Notes on Data Quality.

Legend

  • E = Estimated
  • M = Missing
  • NA = Not Available
  • ‡ = Partner data that is not subject to review by the National Climate Archives
Date modified: